Regional Weather Roundup
Issued by NWS Wakefield, VA

Home | Current Version | Previous Version | Text Only | Print | Product List | Glossary Off
Versions: 1 2 3 4 5 6 7 8 9 10 11 12 13 14 15 16 17 18 19 20 21 22 23 24 25 26 27 28 29 30 31 32 33 34 35 36 37 38 39 40 41 42 43 44 45 46 47 48 49 50

000
ASUS41 KAKQ 031415
RWRAKQ

REGIONAL WEATHER ROUNDUP
NATIONAL WEATHER SERVICE WAKEFIELD VA
1000 AM EDT FRI JUL 03 2015

Note: "fair" indicates few or no clouds below 12,000 feet with no
significant weather and/or obstructions to visibility. * = Denotes
station may not report precipitation (e.g., rain,snow,etc.),
thunder or fog.

VAZ042-051-052>054-056-031500-
NORTHERN VIRGINIA

CITY           SKY/WX    TMP DP  RH WIND       PRES   REMARKS
WASH NATIONAL  PTSUNNY   75  66  73 CALM      30.00R
DULLES         PTSUNNY   73  64  73 CALM      30.00R
FORT BELVOIR   PTSUNNY   72  67  86 SE3       30.00R
QUANTICO       PTSUNNY   72  66  81 S3        30.01R
FREDERICKSBRG* PTSUNNY   74  69  83 E3        29.99S
STAFFORD*      CLOUDY    70  66  88 CALM      30.04S FOG
WARRENTON      CLOUDY    67  67 100 CALM      30.00R FOG
CULPEPER*      CLOUDY    67  65  94 CALM      30.01S
MANASSAS*      MOSUNNY   64  64 100 CALM      30.00R
LEESBURG*      PTSUNNY   72  68  88 NW5       30.01R
WINCHESTER     PTSUNNY   72  63  73 CALM      30.00S
FRONT ROYAL*   PTSUNNY   68  64  88 CALM      29.99S
LURAY*         PTSUNNY   68  68 100 CALM      30.00S FOG
$$

VAZ048-049-060>072-079>083-031500-
CENTRAL AND SOUTH CENTRAL VIRGINIA

CITY           SKY/WX    TMP DP  RH WIND       PRES   REMARKS
RICHMOND       MOSUNNY   77  66  68 SE8       29.99S
CHESTERFIELD*  NOT AVBL
PETERSBURG*    CLOUDY    75  71  85 E5        30.00S
HANOVER        SUNNY     76  62  62 VRB5      30.00F
TAPPAHANNOCK*  MOSUNNY   75  65  69 CALM      30.00F
QUINTON*       FAIR      74  67  78 E5        30.00S
CHARLOTTSVILLE CLOUDY    69  64  84 CALM      30.00R HAZE
GORDONSVILLE*  FAIR      70  66  88 CALM      30.00S
ORANGE*        CLOUDY    70  68  94 CALM      30.02R
LOUISA*        PTSUNNY   75  66  73 SE6       29.99S
BUMPASS*       FAIR      74  66  76 CALM      30.00S
FARMVILLE*     CLOUDY    75  70  84 CALM      29.98S
CREWE*         CLOUDY    73  68  86 SE3       29.99F
FORT PICKETT*  CLOUDY    73  66  80 E7        30.00S
CHASE CITY*    CLOUDY    76  68  77 SE6       29.99S
CLARKSVILLE*   CLOUDY    73  68  83 E3        29.98S
SOUTH HILL*    PTSUNNY   72  65  80 CALM      30.05S
LAWRENCEVILLE* NOT AVBL
EMPORIA*         N/A     73  66  78 CALM      30.00S
$$

VAZ088>098-031500-
SOUTHEAST VIRGINIA

CITY           SKY/WX    TMP DP  RH WIND       PRES   REMARKS
NORFOLK        MOSUNNY   76  65  68 NE8       29.98S
VIRGINIA BEACH MOSUNNY   79  68  69 NE6       29.97
NORFOLK NAVAL  MOSUNNY   76  62  62 E7        30.00S
WEST POINT*    MOSUNNY   78  65  64 E3        30.01S
SALUDA*        FAIR      76  65  70 CALM      29.99S
NEWPORT NEWS   SUNNY     76  65  68 E7        29.99F
LANGLEY AFB    SUNNY     77  65  66 NE9       29.97F
FORT EUSTIS    MOSUNNY   76  68  74 E5        29.97F
WILLIAMSBURG*  SUNNY     75  73  94 CALM      30.00F
HR EXEC AP*    FAIR      79  64  61 N5        30.00F
FRANKLIN*      PTSUNNY   75  69  79 NE5       29.99F
WAKEFIELD      MOSUNNY   76  68  76 E5        29.99F
$$

VAZ020-022-025-037-045-031500-
WEST CENTRAL AND SOUTHWEST VIRGINIA

CITY           SKY/WX    TMP DP  RH WIND       PRES   REMARKS
STAUNTON*      CLOUDY    69  65  88 CALM      30.03S FOG
WAYNESBORO*    CLOUDY    64  63  97 CALM      30.02S
HOT SPRINGS VA HVY RAIN  61  61 100 CALM      30.06F VSB<1/4
LYNCHBURG      CLOUDY    69  65  86 E3        30.01S
DANVILLE       CLOUDY    75  68  78 VRB3      29.98F
SOUTH BOSTON*  CLOUDY    73  69  86 MISG      29.98F
MARTINSVILLE   CLOUDY    71  71 100 E5        30.01S FOG
ROANOKE        LGT RAIN  68  66  93 SE5       30.01S FOG
BLACKSBURG     RAIN      66  66 100 E8        30.04F
DUBLIN*        CLOUDY    67  67 100 E3        30.02S FOG
MARION*        CLOUDY    68  65  92 E6        30.03S
HILLSVILLE*    CLOUDY    65  65  99 SE5       30.02S FOG
RICHLANDS*     FAIR      70  67  88 S3        29.98S
WISE*          CLOUDY    72  68  88 S7        29.98S
ABINGDON*      CLOUDY    73  70  89 S3        29.96F
$$

MDZ021>025-VAZ099-100-031500-
SOUTHERN MARYLAND AND THE DELMARVA PENINSULA

CITY           SKY/WX    TMP DP  RH WIND       PRES   REMARKS
PATUXENT RIVER PTSUNNY   75  64  68 SE6       30.00R
BAY BRIDGE APT   N/A     73  64  73 S5        29.99R
LEONARDTOWN    PTSUNNY   73  64  73 CALM      30.01S
DOVER          PTSUNNY   74  69  85 SE5       29.98R
GEORGETOWN     PTSUNNY   74  67  78 SE3       29.99R
EASTON         NOT AVBL
CAMBRIDGE      CLOUDY    72  64  78 CALM      29.99R
SALISBURY      PTSUNNY   75  64  68 E5        29.99R
OCEAN CITY     MOSUNNY   75  65  70 NE5       29.99R
WALLOPS ISLAND MOSUNNY   76  69  79 NE6       30.00R
ACCOMACK*      MOSUNNY   75  68  78 SE5       29.99S
$$

NCZ012>017-030>032-031500-
NORTH CENTRAL AND EASTERN NORTH CAROLINA

CITY           SKY/WX    TMP DP  RH WIND       PRES   REMARKS
ROANOKE RAPIDS FAIR      73  66  78 E3        29.99S
RALEIGH        CLOUDY    75  70  84 S5        29.98S
ELIZABETH CITY MOSUNNY   78  68  71 NE6       29.98S
AHOSKIE*       MOSUNNY   75  68  78 SE3       29.99R
EDENTON*       PTSUNNY   77  71  81 E3        29.98S
CURRITUCK*     PTSUNNY   78  65  64 NE6       29.99S
KILL DEVIL HLS CLOUDY    75  72  89 NE3       29.97R
MANTEO         DRIZZLE   73  71  95 E6        29.98S
CAPE HATTERAS  MOSUNNY   78  70  76 SW10      29.99R
TARBORO*         N/A     76  71  84 CALM      29.99S
GOLDSBORO      CLOUDY    76  70  83 S6        29.97S
WASHINGTON     PTSUNNY   75  71  86 W3        29.99S
GREENVILLE     PTSUNNY   77  72  83 CALM      30.00S
NEW BERN       CLOUDY    78  69  73 W7        30.01R
WILMINGTON     PTSUNNY   75  72  90 S3        29.99F
$$

VAZ048-031500-
ELSEWHERE

CITY           SKY/WX    TMP DP  RH WIND       PRES   REMARKS
HARRISBURG PA  SUNNY     72  60  66 SW5       29.99S
BALTIMORE      PTSUNNY   72  64  76 E3        29.99R
ANNAPOLIS      PTSUNNY   74  66  76 SE6       29.99R HAZE
ANDREWS AFB    MOSUNNY   73  70  88 SE1       30.00R
PHILADELPHIA   PTSUNNY   76  60  57 E7        29.99S
HENDERSON NC   CLOUDY    72  66  82 SE5       29.99F HAZE
GREENSBORO     CLOUDY    73  68  84 S8        29.97S
ROCKY MOUNT    PTSUNNY   78  72  81 VRB5      29.98S HAZE
$$

VAZ100-031500-
MARINE

STATION/POSITION TIME  TEMP    WIND        PRES    WAVE   SWELL
                       AIR SEA DIR/SP/G            HT/PER HT/PER
                 (UTC) (F)     (DEG/KT/KT) (MB)    (FT/S) (FT/S)
BRANDYWINE LGT   1300   72 74  120/  3/  4 1015.4R
CAPE MAY NJ      1300   71 75  100/  2/  3 1014.8R
LEWES DE         1300   72 72   10/  1/  2 1015.0R
15NM E FENWICK I 1350   72 73              1015.0R   3/ 7
OCEAN-CITY-INLET 1300   72 71   80/  4/  6 1014.9R
WACHAPREAGUE VA  1300   73 77   70/  4/  5 1015.5R
GOOSES REEF MD   1400   74 77  150/  6/  6 1016.7R
COVE POINT MD    1300   72     110/  4/  6 1015.7R
SOLOMONS ISLAND  1300      79                N/A
BISHOPS HEAD MD  1300   73      80/  5/  6 1015.0R
PINEY POINT MD   1300          130/  5/  6   N/A
CAMBRIDGE MD     1300   72 78   80/  2/  2 1015.0R
LEWISETTA VA     1300   74 79  100/  3/  6 1015.1R
RAPPAHANNOCK LGT 1300           80/  6/  8 1015.9R
STINGRAY PT      1400   75 80  130/  6/  8 1015.7R   1/ 2
YORK RVR RNG VA  1300   74     110/ 10/ 12 1015.1R
YORKTOWN VA      1300   74 79   90/  8/ 10 1015.4R
JAMESTOWN VA     1400   75 82  100/  6/  8   N/A
DOMINION TERM VA 1300   75      80/  8/ 11 1015.4R
KIPTOPEKE VA     1300      82  110/  7/ 10   N/A
CHES BAY BRIDGE  1300   72 76   60/  8/  9 1015.0R
CAPE HENRY VA    1300   72      50/  6/  8 1013.9R
CHESAPEAKE LGHT  1300   73      60/  8/  9 1016.0R
WILLOUBY STN VA  1300   74      80/  7/  8 1016.4R
CAPE HENRY BUOY  1328      77                N/A     3/ 6
1ST LANDING BUOY 1400      76              1015.0F   2/ 4
CAPE CHARLES BUO 1326      77                N/A     3/ 8   3/ 8
OFFSHORE WE BUOY 1311      78                N/A     3/ 8   3/ 8
64NM E OF VA BCH 1350   74 76   40/  8/ 10 1014.2F   5/ 7   5/ 7
DUCK PIER NC     1300   74 71   20/  8/  8 1014.1R
44100 DUCK FRF   1324      76                N/A     3/ 7
44056 DUCK FRF   1311      72                N/A     2/ 7
OREGON INLET NC  1300   73 81   20/  2/  3 1014.9R
HATTERAS NC      1300   78 78  240/  7/ 12 1014.9R
DIAMOND SHLS NC  1350   77 83  260/ 16/ 17 1015.1R   6/ 7   3/ 7
CAPE LOOKOUT NC  1400   78     270/ 15/ 18 1015.7R
$$


USA.gov is the U.S. government's official web portal to all federal, state and local government web resources and services.